Location: ??????
(48.2260°N, 37.5292°E)
Time: 13:27:44
(UTC+00:00)

Daily predictions for brighter satellites

Satellite Brightness Start Highest point End
(mag) Time Altitude Azimuth Time Altitude Azimuth Time Altitude Azimuth
NOSS 3-1 (A) 4.1 13:58:44 10° NW 14:06:00 66° NE 14:14:34 10° SE
NOSS 3-1 (C) 4.2 13:59:28 10° NW 14:06:52 89° SW 14:15:37 10° SE
USA 234 3.3 14:00:41 10° ESE 14:07:13 74° NNE 14:13:44 10° NW
Cosmos 1408 Rocket 3.6 14:05:21 10° N 14:09:41 63° ENE 14:14:01 10° SSE
COSMOS 2455 4.3 14:08:39 10° SSE 14:12:44 19° ESE 14:16:50 10° ENE
Envisat 4.4 14:08:13 10° S 14:13:02 43° W 14:17:53 10° NNW
COSMOS 2406 4.3 14:08:40 10° SSE 14:13:17 26° ESE 14:17:54 10° NE
NOAA 11 4.3 14:08:50 10° SSE 14:14:16 87° WSW 14:19:45 10° NNW
SJ-7 4.5 14:11:13 10° SSE 14:15:25 84° ENE 14:19:41 10° NNW
NOAA 12 4.1 14:10:34 10° SSE 14:15:51 67° ENE 14:21:09 10° N
Okean O Rocket 3.2 14:14:06 10° E 14:16:30 14° ENE 14:18:54 10° NNE
Cosmos 1743 Rocket 3.9 14:13:07 10° N 14:17:14 41° ENE 14:21:20 10° SE
Iridium 2 4.0 14:14:07 10° N 14:17:52 70° W 14:21:35 10° S
Meteor PRIRODA 3.5 14:14:32 10° SSE 14:18:09 70° ENE 14:21:46 10° N
ATLAS CENTAUR R/B 3.0 14:15:02 10° W 14:18:44 28° NW 14:22:40 10° NNE
Cosmos 1833 Rocket 3.4 14:15:19 10° S 14:20:23 36° ESE 14:25:29 10° NE
ARGOS 4.3 14:18:18 10° ESE 14:22:13 21° ENE 14:26:08 10° NNE
USA 276 2.8 14:19:59 10° WNW 14:23:03 54° SSW 14:26:06 10° SE
Cosmos 1782 4.2 14:22:06 10° SE 14:24:57 19° E 14:27:48 10° NE
Cosmos 1464 Rocket 4.1 14:18:55 10° S 14:25:17 85° E 14:31:43 10° N
Spot 1 4.3 14:22:01 10° NNE 14:26:43 76° ESE 14:31:38 10° S
USA 308 3.6 14:22:51 10° W 14:26:56 43° NNW 14:30:47 11° ENE
Nadezhda 4 Rocket 4.0 14:26:54 10° N 14:33:16 83° E 14:39:36 10° S
SJ 16-02 3.5 14:29:47 10° NW 14:33:38 31° WSW 14:37:28 10° SSW
Cosmos 1340 Rocket 2.8 14:30:31 10° N 14:34:37 80° E 14:38:42 10° SSE
CZ-4C R/B 4.2 14:31:08 10° N 14:34:55 47° WNW 14:38:29 10° SW
CZ-4B R/B 3.8 14:33:29 10° SE 14:38:14 32° ENE 14:42:56 10° N
CZ-4C R/B 3.2 14:32:14 10° NW 14:38:44 44° NE 14:46:25 10° ESE
Cosmos 2360 4.2 14:33:05 10° NNW 14:38:48 62° ENE 14:44:27 10° SE
Meteor 1-20 Rocket 4.3 14:34:13 10° N 14:40:03 69° ENE 14:45:52 10° SSE
CZ-2C R/B 3.7 14:37:19 10° NE 14:41:25 23° E 14:45:29 10° SE
ISS -3.5 14:38:08 10° WNW 14:41:30 55° NNE 14:44:11 15° E
CZ-2D R/B 3.8 14:38:10 10° SE 14:41:42 36° ENE 14:45:15 10° N
Cosmos 1606 3.7 14:38:11 10° SSW 14:41:50 48° WNW 14:45:32 10° N
Lacrosse 5 rocket 2.5 14:39:43 10° NW 14:42:59 25° NNE 14:45:18 16° ENE
Cosmos 540 Rocket 4.0 14:39:25 10° S 14:44:06 38° ESE 14:48:44 10° NE
GEOS 3 Rocket 4.5 14:39:53 10° E 14:44:18 30° NNE 14:48:45 10° NNW
Cosmos 1500 Rocket 3.5 14:41:46 10° N 14:46:14 86° E 14:50:39 10° S
Cosmos 1092 Rocket 4.0 14:41:36 10° N 14:47:56 66° ENE 14:54:14 10° SSE
MOS 1-B 4.5 14:43:05 10° SE 14:48:39 52° ENE 14:54:14 10° N
CZ-2C R/B 3.6 14:45:11 10° S 14:50:01 57° W 14:54:44 10° NNW
SMAP 3.0 14:45:44 10° SSE 14:50:23 87° ENE 14:55:05 10° NNW
CZ-4B R/B 3.8 14:47:07 10° S 14:51:06 52° W 14:54:54 10° NNW
Cosmos 44 Rocket 4.4 14:47:51 10° NNW 14:51:56 25° NNE 14:54:16 18° ENE
Cosmos 1428 Rocket 4.4 14:46:44 10° N 14:52:49 62° ENE 14:58:54 10° SSE
Cosmos 468 Rocket 3.9 14:48:18 10° SSW 14:53:26 74° ESE 14:58:38 10° NNE
Cosmos 1500 3.5 14:50:35 10° N 14:54:08 39° ENE 14:57:39 10° SE
Cosmos 1898 Rocket 3.5 14:48:55 10° NNW 14:54:14 89° ENE 14:59:27 10° SSE
USA 305 3.7 14:50:23 10° WNW 14:54:21 38° N 14:56:56 19° NE
Cosmos 1805 Rocket 3.4 14:53:27 10° N 14:57:48 68° E 15:02:06 10° SSE
Cosmos 2360 Rocket 4.0 14:55:24 10° N 14:57:57 13° NNE 14:58:40 13° NE
Sich 1 3.0 14:54:25 10° N 14:58:38 55° ENE 15:02:52 10° SSE
Cosmos 1933 3.2 14:56:56 10° S 15:00:57 70° E 15:04:59 10° NNE
Cosmos 2221 3.8 14:58:48 10° SW 15:02:50 40° WNW 15:06:56 10° N
PSLV R/B 3.5 15:02:59 10° SSE 15:06:39 80° ENE 15:10:24 10° NNW
Cosmos 1627 Rocket 4.4 15:02:23 10° N 15:08:37 79° E 15:14:44 10° SSE
NOSS 2-2 (C) 4.2 15:05:21 10° NW 15:10:21 71° NE 15:17:23 10° SE
Cosmos 2034 Rocket 4.4 15:05:28 10° SSW 15:11:33 64° WNW 15:17:41 10° N
Meteor 1-14 Rocket 4.4 15:08:31 10° N 15:14:11 53° ENE 15:19:58 10° SSE
H-2A R/B 1.9 15:09:04 10° SSE 15:14:14 76° ENE 15:19:18 10° N
deb Chang Zheng 4 3.6 15:10:50 10° SE 15:15:01 52° ENE 15:19:13 10° N
USA 267 3.4 15:10:52 18° NE 15:15:54 72° NNW 15:22:24 10° WSW
MOS 1-B Rocket 4.1 15:11:32 10° NNE 15:17:20 61° ESE 15:23:51 10° S
Cosmos 2279 Rocket 4.2 15:11:53 10° SSE 15:17:47 48° E 15:23:42 10° NNE
Cosmos 2322 Rocket 3.4 15:13:28 10° N 15:17:49 22° NE 15:18:14 22° NE
Cosmos 1697 Rocket 3.2 15:15:45 10° NNW 15:21:18 63° WSW 15:26:50 10° SSE
Cosmos 1666 2.8 15:20:13 10° N 15:23:50 46° ENE 15:27:26 10° SSE
SJ-11-01 4.3 15:19:52 10° SSE 15:24:30 57° ENE 15:29:10 10° N
Cosmos 2369 3.7 15:18:45 10° NNW 15:24:31 87° WSW 15:30:15 10° SSE
ATLAS 5 CENTAUR R/B 2.6 15:16:53 10° NW 15:24:49 41° NNE 15:25:50 34° ENE
Cosmos 1980 Rocket 2.1 15:19:31 10° NNW 15:25:14 78° ENE 15:30:52 10° SSE
USA 306 3.7 15:22:36 10° WNW 15:26:34 37° N 15:27:44 31° NE
ERBS 4.0 15:24:09 10° WNW 15:26:39 20° NNW 15:27:11 19° N
Meteor 1-5 Rocket 4.3 15:20:59 10° N 15:26:56 60° ENE 15:32:47 10° SSE
Meteor 2-21 4.4 15:22:11 10° N 15:28:18 85° W 15:34:21 10° S
Cosmos 1763 Rocket 4.0 15:23:30 10° SW 15:28:29 56° WNW 15:33:29 10° NNE
COSMO-SKYMED 1 2.6 15:27:55 25° NNE 15:30:19 56° E 15:34:35 10° S
SL-24 R/B - RUBIN 2 3.5 15:26:36 10° NW 15:31:11 90° ENE 15:34:49 14° SE
Cosmos 1634 Rocket 4.0 15:26:53 10° S 15:33:13 88° WNW 15:39:36 10° N
Cosmos 841 Rocket 3.3 15:28:38 10° SSW 15:33:47 78° ESE 15:37:08 22° NNE
SL-16 R/B 2.9 15:30:00 10° NNW 15:35:05 32° NE 15:35:31 32° ENE
Cosmos 1937 Rocket 4.2 15:30:35 10° NNW 15:35:49 58° WSW 15:41:01 10° S
ATLAS CENTAUR R/B 2.7 15:26:38 10° SW 15:35:50 81° NW 15:37:40 36° NE
Cosmos 1125 Rocket 4.2 15:32:21 10° N 15:36:47 33° NE 15:36:47 33° NE
Helios 1B 4.5 15:37:05 29° NNE 15:39:12 67° ESE 15:43:30 10° S
Cosmos 2082 Rocket 2.1 15:33:57 10° SSW 15:39:36 69° ESE 15:42:35 29° NE
Cosmos 2026 Rocket 4.3 15:33:35 10° NNW 15:39:41 65° W 15:45:40 10° S
Cosmos 1812 2.5 15:36:35 10° S 15:40:25 74° E 15:41:27 46° NNE
Cosmos 1633 Rocket 2.9 15:37:25 10° N 15:41:49 71° E 15:46:10 10° SSE
ATLAS 2AS CENTAUR R/B 4.2 15:36:47 10° NW 15:42:49 24° N 15:46:02 18° NNE
YAOGAN 1 3.9 15:45:11 25° NNE 15:45:11 25° NNE 15:47:12 10° N
Cosmos 2333 Rocket 4.1 15:40:01 10° N 15:42:09 14° NNE 15:42:09 14° NNE
USA 307 3.6 15:40:54 10° WNW 15:44:55 38° N 15:45:19 37° NNE
Cosmos 2278 3.6 15:43:18 10° NNW 15:49:02 85° ENE 15:54:44 10° SSE
Cosmos 372 Rocket 4.3 15:45:11 10° NNW 15:50:24 67° WSW 15:55:35 10° S
USA 234 4.4 15:44:22 10° SSE 15:50:31 43° SW 15:56:41 10° WNW
Cosmos 1655 Rocket 4.0 15:45:34 10° N 15:51:53 57° ENE 15:58:08 10° SSE
Okean O Rocket 1.6 15:47:47 10° SSE 15:52:14 81° WSW 15:56:44 10° NNW
COSMOS 2406 3.7 15:51:30 10° SW 15:57:10 59° WNW 16:01:00 21° NNE
COSMOS 2455 2.8 15:51:53 10° SW 15:57:54 85° WNW 16:00:45 34° NNE
Meteor 2-15 4.4 15:52:16 10° S 15:58:14 59° E 16:01:34 27° NNE
ATLAS CENTAUR R/B 4.0 15:57:27 10° NW 15:59:07 12° NNW 16:00:08 11° N
Cosmos 1151 Rocket 3.0 15:55:13 10° SSW 15:59:31 79° W 16:01:14 36° N
Cosmos 1782 4.1 15:57:12 10° SW 16:00:58 39° WNW 16:04:07 14° N
ARGOS 3.3 15:56:33 10° S 16:01:57 72° WSW 16:07:23 10° NNW
Cosmos 2180 Rocket 4.4 15:57:37 10° S 16:03:58 80° E 16:10:17 10° N
Cosmos 1833 Rocket 3.7 15:58:54 10° SW 16:04:14 43° NW 16:08:05 18° N
Cosmos 1666 Rocket 4.3 16:02:13 10° NNW 16:06:35 54° W 16:10:52 10° S
USA 308 3.8 16:03:25 10° WNW 16:06:49 38° NNW 16:06:49 38° NNW
Meteor 2-6 Rocket 4.1 16:02:31 10° S 16:08:18 82° E 16:11:08 31° NNE
Cosmos 2219 Rocket 4.2 16:09:19 10° N 16:10:38 14° N 16:10:38 14° N
Cosmos 1328 Rocket 3.6 16:09:13 10° SSW 16:13:39 79° W 16:13:46 78° WNW
Meteor 2-8 Rocket 4.4 16:11:40 10° S 16:17:50 85° W 16:23:55 11° N
ISS -1.9 16:15:04 10° WNW 16:17:11 31° W 16:17:11 31° W
SKYMED 2 4.4 16:16:31 29° NNW 16:18:22 49° WNW 16:22:32 10° SW
CZ-4B R/B 4.3 16:13:32 10° S 16:18:40 43° W 16:23:46 10° NNW
NOAA 15 4.5 16:13:44 10° SSE 16:19:02 89° WSW 16:24:21 10° NNW
CZ-4 R/B 4.1 16:23:49 11° NNW 16:23:49 11° NNW 16:23:55 10° NNW
Cosmos 2298 Rocket 4.0 16:14:57 10° NNW 16:19:52 72° NNE 16:19:52 72° NNE
Cosmos 1570 Rocket 4.0 16:15:38 10° SSW 16:20:53 80° WNW 16:21:37 66° N
GEOS 3 Rocket 3.6 16:21:01 60° SSE 16:21:58 80° SW 16:27:12 10° NW
CZ-2C R/B 3.2 16:17:52 15° N 16:22:04 54° WNW 16:27:05 10° SW
Lacrosse 5 rocket 2.7 16:18:39 10° NW 16:20:54 33° NW 16:20:54 33° NW
Landsat 5 4.1 16:23:53 54° WSW 16:23:53 54° WSW 16:27:22 10° SSW
SL-08 RB Rocket 4.3 16:20:38 10° S 16:25:12 57° W 16:29:46 10° NNW
Meteor 1-11 Rocket 3.6 16:20:08 10° N 16:25:14 72° NNE 16:25:14 72° NNE
Meteor 1-10 Rocket 4.1 16:20:17 10° S 16:26:05 84° E 16:26:29 77° NE
CZ-4C R/B 3.2 16:20:37 10° NW 16:27:49 68° SW 16:34:47 16° SSE
Cosmos 1818 3.5 16:22:47 10° NW 16:28:18 85° SW 16:28:21 84° SW
Cosmos 1814 Rocket 4.4 16:23:42 10° SW 16:28:52 61° WNW 16:29:53 51° NNW
Cosmos 44 Rocket 3.8 16:29:05 10° NW 16:33:01 56° NW 16:33:01 56° NW
Cosmos 2360 Rocket 3.7 16:38:02 10° NNW 16:40:26 24° N 16:40:26 24° N
USA 267 3.9 16:58:13 43° N 16:58:27 43° N 17:04:32 10° WNW
Cosmos 2322 Rocket 3.4 16:56:54 10° NNW 17:00:05 35° NNW 17:00:05 35° NNW
SL-16 R/B 3.5 17:13:57 10° NW 17:17:26 35° WNW 17:17:26 35° WNW
Cosmos 2082 Rocket 4.0 17:19:30 10° WSW 17:24:13 26° NW 17:24:27 26° NW
ATLAS 2AS CENTAUR R/B 4.3 17:29:29 10° NW 17:33:28 26° NNW 17:33:28 26° NNW
